#timestamp,LO_Frequency,Hit,StdDev 
1691118015.4,286047003.9,P
1691118035.2,286047004.1,Y
1691118055.0,286047000.4,P
1691118055.9,286047000.4,N
1691118075.8,286046999.7,N
1691118095.6,286047000.9,N
1691118115.4,286047001.0,N
1691118135.3,286047002.3,N
1691118155.1,286047002.5,N
1691118156.0,286047002.5,N
1691118175.8,286047001.2,N
1691118195.7,286047000.6,N
1691118215.5,286047000.1,N
1691118235.3,286047000.2,N
1691118255.2,286047000.6,N
1691118275.9,286047000.3,N
1691118295.7,286046999.8,N
1691118315.6,286047000.0,N
1691118335.4,286047001.4,N
1691118355.2,286047001.6,N
1691118375.1,286047001.6,N
1691118376.0,286047011.9,Y
1691118395.8,286047005.3,P
1691118415.6,286047004.4,N
1691118435.5,286047001.5,N
1691118455.3,286047002.3,N
1691118475.1,286047002.3,N
1691118495.9,286047002.7,N
1691118515.7,286046999.7,N
1691118535.5,286047002.7,N
1691118555.4,286047002.4,N
1691118575.2,286047002.6,N
1691118595.0,286047001.9,N
1691118595.9,286047001.9,N
1691118615.8,286047001.8,N
1691118635.6,286047001.8,N
1691118655.4,286047002.2,N
1691118675.3,286047004.0,Y
1691118695.1,286047000.6,P
1691118715.8,286047002.0,N
1691118735.7,286046999.7,N
1691118755.5,286047002.5,N
1691118775.3,286047002.6,N
1691118795.2,286047003.9,Y
1691118815.0,286047001.2,P
1691118815.9,286047001.2,P
1691118835.7,286046998.4,P
1691118855.6,286047000.2,N
1691118875.4,286046998.3,N
1691118895.2,286046998.2,N
1691118915.1,286047000.6,N
1691118916.0,286047000.6,N
1691118935.8,286047001.2,N
1691118955.6,286047001.0,N
1691118975.5,286047000.9,N
1691118995.3,286047000.3,N
1691119015.1,286047001.1,N
1691119035.9,286047002.1,N
1691119055.7,286046998.5,N
1691119075.5,286046998.9,N
1691119095.4,286046999.2,N
1691119115.2,286046998.4,N
1691119135.0,286047001.2,N
1691119135.9,286047001.2,N
1691119155.8,286046998.5,N
1691119175.6,286046998.7,N
1691119195.4,286046998.5,N
1691119215.3,286046999.3,N
1691119235.1,286047000.2,N
1691119255.8,286047001.2,N
1691119275.7,286047000.7,N
1691119295.5,286047000.3,N
1691119315.3,286047000.7,N
1691119335.2,286046998.5,N
1691119355.0,286047000.3,N
1691119355.9,286047000.3,N
1691119375.8,286046998.4,N
1691119395.6,286046999.4,N
1691119415.4,286046999.4,N
1691119435.3,286046998.1,N
1691119455.1,286047000.5,N
1691119456.0,286047000.5,N
1691119475.8,286047000.2,N
1691119495.7,286046998.5,N
1691119515.5,286047001.0,N
1691119535.3,286046998.5,N
1691119555.2,286047000.6,N
1691119575.9,286047000.1,N
1691119595.7,286047000.4,N
1691119615.6,286047001.2,N
1691119635.4,286046999.7,N
1691119655.2,286047001.9,N
1691119675.1,286047018.3,Y
1691119676.0,286047018.3,P
1691119695.8,286047004.5,N
1691119715.6,286047001.0,N
1691119735.5,286046997.2,N
1691119755.3,286046995.2,N
1691119775.1,286046995.8,N
1691119795.9,286046995.7,N
1691119815.7,286046993.3,N
1691119835.5,286046995.4,N
1691119855.4,286046997.2,N
1691119875.2,286046995.6,N
1691119895.0,286046998.0,N
1691119895.9,286046998.0,N
1691119915.8,286046994.9,N
1691119935.6,286046997.5,N
1691119955.4,286046997.2,N
1691119975.3,286046996.9,N
1691119995.1,286046999.6,N
1691119996.0,286046999.6,N
1691120015.8,286046998.7,N
1691120035.7,286046996.5,N
1691120055.5,286046998.7,N
1691120075.3,286046998.9,N
1691120095.2,286046999.1,N
1691120115.9,286046998.7,N
1691120135.7,286046998.3,N
1691120155.6,286047000.9,N
1691120175.4,286047001.0,N
1691120195.2,286046998.2,N
1691120215.1,286047001.2,N
1691120216.0,286047001.2,N
1691120235.8,286046998.3,N
1691120255.6,286046998.7,N
1691120275.5,286046998.2,N
1691120295.3,286046999.1,N
1691120315.1,286046999.3,N
1691120335.9,286046998.2,N
1691120355.7,286046999.3,N
1691120375.5,286046998.5,N
1691120395.4,286046998.2,N
1691120415.2,286047000.9,N
1691120435.0,286047000.8,N
1691120435.9,286047000.8,N
1691120455.8,286047000.9,N
1691120475.6,286047000.8,N
1691120495.4,286047000.7,N
1691120515.3,286047001.2,N
1691120535.1,286047000.9,N
1691120555.8,286047002.7,N
1691120575.7,286047002.5,N
1691120595.5,286047002.1,N
1691120615.3,286047001.4,N
1691120635.2,286047004.0,N
1691120655.0,286047004.0,N
1691120655.9,286047004.0,N
1691120675.7,286047004.4,N
1691120695.6,286047001.8,N
1691120715.4,286047003.8,N
1691120735.2,286047004.3,N
1691120755.1,286047003.5,N
1691120756.0,286047003.5,N
1691120775.8,286047003.2,N
1691120795.6,286047004.0,N
1691120815.5,286047004.1,N
1691120835.3,286047003.0,N
1691120855.1,286047005.8,Y
1691120875.9,286047003.5,P
1691120895.7,286047003.5,P
1691120915.5,286047003.4,P
1691120935.4,286047003.6,Y
1691120955.2,286047000.8,P
1691120975.0,286047000.5,N
1691120975.9,286047000.5,N
1691120995.8,286047000.6,N
1691121015.6,286047000.0,N
1691121035.4,286047000.4,N
1691121055.3,286047000.0,N
1691121075.1,286047001.8,N
1691121095.8,286047002.6,N
1691121115.7,286047002.8,N
1691121135.5,286047002.1,N
1691121155.3,286047002.7,N
1691121175.2,286047002.3,N
1691121195.0,286047002.4,N
1691121195.9,286047002.4,N
1691121215.7,286047000.5,N
1691121235.6,286047001.2,N
1691121255.4,286047001.0,N
1691121275.2,286046998.2,N
1691121295.1,286047000.8,N
1691121296.0,286047000.8,N
1691121315.8,286047000.9,N
1691121335.6,286046999.8,N
1691121355.5,286047000.0,N
1691121375.3,286047000.6,N
1691121395.1,286046999.9,N
1691121415.9,286047002.6,N
1691121435.7,286047002.4,N
1691121455.5,286047000.2,N
1691121475.4,286047002.1,N
1691121495.2,286047003.9,Y
1691121515.1,286047002.4,P
1691121516.0,286047002.4,P
1691121535.8,286046999.7,N
1691121555.6,286047002.4,N
1691121575.5,286047002.8,N
1691121595.3,286047001.0,N
